Home > Weather > Resistencia > Past weeks

Flag for Argentina Past Weather in Resistencia, Chaco, Argentina — Yesterday and Last 2 Weeks

Now
63 °F

Fog.


Feels Like: 63 °F
Forecast: 59 / 82 °F
Wind: 3 mph from Southeast

Location: Resistencia Aero.

Current Time: Jul 24, 2016 at 9:48:35 AM

Latest Report: Jul 24, 2016 at 9:00 AM


Visibility: 3 mi

Pressure: 29.98 "Hg

Humidity: 83%

Dew Point: 57 °F

Location of ResistenciaLocation

Past Weather in Resistencia — Graph

°F

Resistencia Temperature Yesterday

Maximum temperature yesterday: 81 °F (at 3:00 PM)
Minimum temperature yesterday: 46 °F (at 7:00 AM)
Average temperature yesterday: 61 °F

High & Low Weather Summary for the Past Weeks

 TemperatureHumidityPressure
High81 °F (Jul 23, 3:00 PM)100% (Jul 9, 9:00 AM)30.36 "Hg (Jul 9, 9:00 AM)
Low37 °F (Jul 17, 8:00 AM)31% (Jul 22, 4:00 PM)29.68 "Hg (Jul 11, 6:00 AM)
Average56 °F80%30.04 "Hg
* Reported Jul 9 8:00 AM — Jul 24 8:00 AM, Resistencia, Weather by CustomWeather, © 2016

Note: Actual official high and low records may vary slightly from our data, if they occured in-between our weather recording intervals... More about our weather records

Advertising

Resistencia Weather History for the Previous 24 Hours

Scroll right to see more
 ConditionsComfort  
Time TempWeatherWind HumidityBarometerVisibility
8:00 AM
Sun, Jul 24
59 °FFog.2 mph88%29.98 "Hg3 mi
7:00 AM61 °FClear.3 mph88%29.98 "Hg5 mi
6:00 AM57 °FClear.2 mph94%29.95 "Hg5 mi
5:00 AM55 °FClear.1 mph100%29.95 "Hg5 mi
4:00 AM57 °FClear.2 mph94%29.95 "Hg5 mi
3:00 AM57 °FClear.2 mph94%29.95 "Hg5 mi
1:00 AM57 °FClear.2 mph94%29.95 "Hg5 mi
12:00 AM57 °FClear.2 mph94%29.95 "Hg5 mi
11:00 PM
Sat, Jul 23
57 °FClear.2 mph88%29.95 "Hg5 mi
10:00 PM59 °FClear.No wind82%29.95 "Hg5 mi
9:00 PM64 °FClear.3 mph73%29.92 "Hg5 mi
8:00 PM64 °FClear.3 mph68%29.89 "Hg5 mi
7:00 PM68 °FClear.No wind69%29.86 "Hg5 mi
6:00 PM75 °FClear.2 mph47%29.86 "Hg5 mi
5:00 PM79 °FClear.1 mph42%29.86 "Hg5 mi
4:00 PM79 °FClear.6 mph37%29.86 "Hg5 mi
3:00 PM81 °FClear.3 mph37%29.89 "Hg5 mi
2:00 PM79 °FClear.7 mph39%29.92 "Hg3 mi
1:00 PM75 °FClear.7 mph44%29.95 "Hg3 mi
12:00 PM72 °FClear.6 mph50%29.98 "Hg3 mi
11:00 AM66 °FClear.5 mph60%29.98 "Hg4 mi
10:00 AM61 °FClear.6 mph72%29.98 "Hg4 mi
9:00 AM52 °FFog.No wind94%29.95 "Hg2 mi
Weather by CustomWeather, © 2016

See weather overviewHow to use our weather pages